[[{"header":{"parameterUnit":"m.s-1","parameterCategory":1,"la1":30.2991,"la2":30.254,"lo1":-89.0895,"lo2":-89.0444,"dy":0.0017,"dx":0.0017,"nx":28,"ny":28,"refTime":"2024-05-17T21:00:00:Z","depth":0,"parameterNumber":2,"parameterNumberName":"U-component_of_WINDS"},"data":[0,0,0,0,0,0,0,0,0,0,0,0,0,0,0,0,0,0,0,0,0,0,0,0,0,0,0,0,0,0,0,0,0,0,0,0,0,0,0,0,0,0,0,0,0,0,0,0,0,0,0,0,0,0,0,0,0,0,-0.5294,-0.5293,0,-0.5161,-0.5159,-0.5158,-0.5061,-0.506,-0.5059,-0.5058,-0.4921,-0.4918,-0.4915,0,0,0,0,0,0,0,0,0,0,0,0,0,-0.5465,-0.5463,-0.5294,-0.5292,-0.5291,-0.5161,-0.5159,-0.5157,-0.5061,-0.506,-0.5059,-0.5058,-0.4922,-0.4918,-0.4915,0,0,0,0,0,0,0,0,0,0,0,0,0,-0.5367,-0.5462,-0.5294,-0.5227,-0.522,-0.5161,-0.5159,-0.5157,-0.5061,-0.506,-0.5058,-0.5057,-0.4923,-0.4919,-0.4914,-0.4912,0,0,-0.4901,-0.4899,0,0,0,0,0,0,0,0,-0.5373,-0.5361,-0.5238,-0.5231,-0.5223,-0.5126,-0.5169,-0.5075,-0.5061,-0.5121,-0.5058,-0.5057,-0.499,-0.498,-0.4958,-0.4906,-0.49,-0.4901,-0.4898,-0.4896,-0.4895,0,0,0,0,0,0,0,-0.538,-0.5366,-0.5241,-0.5237,-0.5227,-0.5203,-0.5188,-0.5151,-0.5064,-0.5116,-0.5108,-0.5094,-0.4986,-0.4962,-0.4954,-0.4898,-0.4901,-0.4897,-0.4894,-0.4893,-0.484,-0.4841,0,0,0,0,0,0,-0.5397,-0.5373,-0.5246,-0.5237,-0.5297,-0.5201,-0.5184,-0.5158,-0.5064,-0.5049,-0.5095,-0.509,-0.497,-0.4959,-0.4949,-0.4941,-0.4896,-0.4892,-0.489,-0.4839,-0.484,-0.4841,0,0,0,0,0,0,-0.5401,-0.5387,-0.5251,-0.5303,-0.5284,-0.52,-0.5172,-0.5157,-0.5133,-0.5049,-0.5033,-0.5087,-0.4969,-0.4955,-0.4923,-0.4935,-0.489,-0.4886,-0.4837,-0.4839,-0.4841,-0.4926,0,0,0,0,0,0,-0.5407,-0.5389,-0.5387,-0.5304,-0.5281,-0.5227,-0.5172,-0.5155,-0.5126,-0.5118,-0.5037,-0.5022,-0.4967,-0.493,-0.4918,-0.4928,-0.4883,-0.4836,-0.4838,-0.484,-0.4922,-0.493,-0.4938,0,0,0,0,0,-0.5413,-0.5416,-0.5387,-0.5373,-0.5277,-0.5228,-0.5215,-0.5151,-0.5127,-0.5125,-0.5071,-0.5025,-0.4936,-0.4927,-0.4914,-0.4922,-0.4835,-0.4837,-0.484,-0.4918,-0.4929,-0.4938,0,0,0,0,0,0,-0.5501,-0.5403,-0.5371,-0.5346,-0.5297,-0.5212,-0.5207,-0.5165,-0.512,-0.5114,-0.5037,-0.5019,-0.4996,-0.4956,-0.4948,-0.4917,-0.488,-0.488,-0.4943,-0.4953,-0.4961,-0.4971,-0.4879,0,0,0,0,0,-0.5519,-0.5487,-0.5402,-0.5389,-0.5366,-0.5291,-0.5267,-0.5223,-0.5167,-0.5146,-0.5089,-0.5038,-0.4998,-0.4973,-0.4932,-0.4916,-0.4897,-0.4915,-0.4924,-0.4931,-0.4932,-0.4922,-0.4929,-0.485,-0.485,-0.485,0,0,-0.5552,-0.5495,-0.5479,-0.5406,-0.5361,-0.5331,-0.5274,-0.5243,-0.522,-0.5141,-0.5107,-0.5065,-0.5002,-0.4978,-0.4965,-0.4944,-0.495,-0.4934,-0.4941,-0.4937,-0.4925,-0.4933,-0.494,-0.4852,-0.4852,-0.4852,0,0,-0.5599,-0.5552,-0.5536,-0.5494,-0.5429,-0.5379,-0.5376,-0.5298,-0.5267,-0.5232,-0.5173,-0.5144,-0.5077,-0.5035,-0.5005,-0.5039,-0.4996,-0.5028,-0.507,-0.5062,-0.5068,-0.5073,-0.5086,-0.5092,-0.5029,-0.5029,-0.503,0,-0.5649,-0.56,-0.5534,-0.5507,-0.5477,-0.5405,-0.539,-0.5352,-0.5276,-0.5257,-0.5235,-0.5151,-0.5103,-0.507,-0.5079,-0.5057,-0.5051,-0.5036,-0.5073,-0.5077,-0.5081,-0.5093,-0.5098,-0.5034,-0.5033,-0.5033,-0.5033,0,-0.5666,-0.5634,-0.5629,-0.5559,-0.5529,-0.5508,-0.5438,-0.5415,-0.5374,-0.5328,-0.5294,-0.5235,-0.5182,-0.5171,-0.5129,-0.5132,-0.5121,-0.5087,-0.5048,-0.5094,-0.5104,-0.5108,-0.504,-0.5039,-0.5037,-0.5036,0,0,-0.5763,-0.5658,-0.5658,-0.5626,-0.555,-0.5523,-0.55,-0.5448,-0.5431,-0.5382,-0.5361,-0.5307,-0.5276,-0.5242,-0.5196,-0.5188,-0.5221,-0.5155,-0.5152,-0.517,-0.5221,-0.5248,-0.5254,-0.5192,-0.5192,-0.5193,-0.5227,0,-0.5798,-0.5752,-0.5692,-0.5667,-0.5637,-0.5569,-0.5549,-0.5501,-0.5457,-0.5426,-0.5377,-0.5341,-0.5302,-0.5281,-0.5271,-0.5219,-0.523,-0.5216,-0.5172,-0.5171,-0.519,-0.5259,-0.5286,-0.5321,-0.523,-0.5231,-0.5231,0,-0.5832,-0.5788,-0.576,-0.5688,-0.5673,-0.5656,-0.5605,-0.5576,-0.552,-0.5489,-0.5453,-0.5404,-0.5377,-0.5343,-0.5305,-0.5296,-0.5275,-0.5247,-0.5247,-0.5241,-0.5204,-0.5255,-0.5331,-0.5336,-0.5236,-0.5236,-0.5235,0,-0.5907,-0.584,-0.5815,-0.579,-0.5705,-0.5695,-0.566,-0.5603,-0.5576,-0.5532,-0.5514,-0.5467,-0.5442,-0.5407,-0.5347,-0.5327,-0.5316,-0.5276,-0.529,-0.5292,-0.529,-0.5291,-0.5365,-0.5277,-0.5277,-0.5276,-0.5276,0,-0.5952,-0.5938,-0.5848,-0.5832,-0.5815,-0.5747,-0.5732,-0.569,-0.564,-0.5616,-0.5555,-0.5534,-0.5456,-0.5426,-0.5379,-0.5356,-0.5344,-0.5319,-0.5307,-0.5324,-0.5328,-0.5309,-0.5306,-0.5278,-0.5277,-0.5277,-0.5277,0,-0.6032,-0.5971,-0.5939,-0.5863,-0.5843,-0.5834,-0.5768,-0.5752,-0.5705,-0.5676,-0.5665,-0.5593,-0.5554,-0.5491,-0.5434,-0.5403,-0.5388,-0.5367,-0.5408,-0.54,-0.5418,-0.5417,-0.5482,-0.5487,-0.5396,-0.5397,-0.5398,0,-0.6065,-0.6052,-0.5975,-0.5955,-0.5922,-0.589,-0.5863,-0.5796,-0.5771,-0.5708,-0.5699,-0.5657,-0.5619,-0.5561,-0.5503,-0.546,-0.5438,-0.5464,-0.5431,-0.545,-0.5439,-0.5441,-0.544,-0.5471,-0.5472,-0.5474,-0.5474,0,-0.613,-0.6101,-0.6065,-0.6019,-0.5989,-0.595,-0.5907,-0.5894,-0.5818,-0.5793,-0.5754,-0.5725,-0.5668,-0.5626,-0.5576,-0.5539,-0.5495,-0.5486,-0.5486,-0.5505,-0.5529,-0.5517,-0.5429,-0.5484,-0.5483,-0.5482,-0.5482,-0.5481,-0.6187,-0.6174,-0.6118,-0.6081,-0.6042,-0.6005,-0.5986,-0.5938,-0.5904,-0.5853,-0.5815,-0.5779,-0.5726,-0.5653,-0.5619,-0.559,-0.557,-0.5571,-0.5571,-0.5573,-0.558,-0.5534,-0.558,-0.558,-0.558,-0.5579,-0.5579,0,-0.6251,-0.6212,-0.6178,-0.6121,-0.6092,-0.6054,-0.6005,-0.5984,-0.5953,-0.5907,-0.5872,-0.5827,-0.5788,-0.5728,-0.5684,-0.5673,-0.5651,-0.5663,-0.5664,-0.5656,-0.56,-0.5604,-0.5681,-0.5681,-0.5681,-0.5681,-0.5681,-0.5681,-0.628,-0.6256,-0.6221,-0.6178,-0.6139,-0.6103,-0.6079,-0.6045,-0.6008,-0.5962,-0.5929,-0.589,-0.5839,-0.5791,-0.5754,-0.5737,-0.5724,-0.5743,-0.5721,-0.5669,-0.566,-0.5651,-0.5654,-0.5741,-0.5741,-0.5779,-0.5779,-0.5779]},{"header":{"parameterUnit":"m.s-1","parameterCategory":1,"la1":30.2991,"la2":30.254,"lo1":-89.0895,"lo2":-89.0444,"dy":0.0017,"dx":0.0017,"nx":28,"ny":28,"refTime":"2024-05-17T21:00:00:Z","depth":0,"parameterNumber":3,"parameterNumberName":"V-component_of_WINDS"},"data":[0,0,0,0,0,0,0,0,0,0,0,0,0,0,0,0,0,0,0,0,0,0,0,0,0,0,0,0,0,0,0,0,0,0,0,0,0,0,0,0,0,0,0,0,0,0,0,0,0,0,0,0,0,0,0,0,0,0,2.8489,2.849,0,2.85,2.8501,2.8501,2.8534,2.8535,2.8536,2.8537,2.8545,2.8545,2.8544,0,0,0,0,0,0,0,0,0,0,0,0,0,2.8496,2.8495,2.8489,2.849,2.849,2.85,2.8501,2.8501,2.8534,2.8535,2.8536,2.8537,2.8545,2.8545,2.8544,0,0,0,0,0,0,0,0,0,0,0,0,0,2.8498,2.8495,2.8489,2.8508,2.851,2.85,2.8501,2.8501,2.8534,2.8535,2.8536,2.8537,2.8545,2.8545,2.8544,2.8517,0,0,2.8542,2.8541,0,0,0,0,0,0,0,0,2.8498,2.8498,2.8505,2.8507,2.8509,2.8517,2.8506,2.8506,2.8534,2.8525,2.8537,2.8538,2.8535,2.8535,2.8534,2.8517,2.8518,2.8542,2.8541,2.8541,2.8541,0,0,0,0,0,0,0,2.8498,2.8498,2.8494,2.8505,2.8507,2.8515,2.8517,2.8506,2.8523,2.8526,2.8528,2.8529,2.8536,2.8535,2.8535,2.8518,2.8542,2.8541,2.8541,2.854,2.8478,2.8477,0,0,0,0,0,0,2.8495,2.8497,2.8493,2.8494,2.8506,2.8514,2.8516,2.8513,2.8523,2.8526,2.8528,2.8531,2.8536,2.8536,2.8535,2.8503,2.8541,2.854,2.854,2.8479,2.8478,2.8477,0,0,0,0,0,0,2.8495,2.8495,2.8493,2.8496,2.8497,2.8513,2.851,2.8513,2.8512,2.8525,2.8528,2.8524,2.8537,2.8536,2.8521,2.8504,2.854,2.8539,2.8481,2.8479,2.8477,2.8439,0,0,0,0,0,0,2.8495,2.8495,2.8485,2.8496,2.8496,2.8479,2.8509,2.8512,2.8511,2.8514,2.8522,2.8525,2.8537,2.8522,2.852,2.8504,2.8539,2.8482,2.848,2.8478,2.8442,2.8436,2.8431,0,0,0,0,0,2.8496,2.8473,2.8484,2.8483,2.8485,2.8478,2.8478,2.8494,2.851,2.8499,2.8508,2.8524,2.8507,2.852,2.8519,2.8501,2.8484,2.8481,2.8478,2.8444,2.8437,2.8431,0,0,0,0,0,0,2.8458,2.8475,2.8487,2.8468,2.8472,2.8484,2.8471,2.8486,2.8485,2.8488,2.8507,2.8508,2.849,2.8495,2.851,2.8475,2.8498,2.8495,2.8473,2.8466,2.8461,2.8459,2.8538,0,0,0,0,0,2.8448,2.8442,2.8457,2.8438,2.844,2.8455,2.8453,2.8465,2.8469,2.847,2.8478,2.848,2.8475,2.8471,2.8468,2.8444,2.8445,2.8431,2.8426,2.8421,2.8417,2.8404,2.8397,2.8468,2.8468,2.8468,0,0,2.8427,2.8435,2.843,2.8431,2.8435,2.8428,2.8456,2.8447,2.8441,2.8469,2.8455,2.846,2.8465,2.8445,2.8436,2.8448,2.8399,2.8418,2.8414,2.8413,2.84,2.8394,2.8388,2.8466,2.8466,2.8466,0,0,2.8383,2.8389,2.8374,2.8378,2.8384,2.8395,2.8391,2.8402,2.8407,2.8394,2.8414,2.8407,2.8398,2.84,2.84,2.8358,2.8372,2.8356,2.8327,2.8314,2.8308,2.8303,2.8287,2.8281,2.8353,2.8353,2.8353,0,2.8354,2.8345,2.8364,2.8354,2.8353,2.8379,2.8364,2.8366,2.837,2.8369,2.8383,2.8372,2.8377,2.8357,2.8347,2.8346,2.8342,2.8354,2.8308,2.8303,2.8299,2.8283,2.8277,2.8351,2.8351,2.8351,2.8351,0,2.8309,2.8302,2.8289,2.8293,2.8291,2.8278,2.8295,2.8291,2.8304,2.8313,2.8298,2.8305,2.8303,2.83,2.8312,2.8282,2.8288,2.8305,2.8327,2.829,2.8275,2.8269,2.8347,2.8348,2.8349,2.8349,0,0,2.824,2.8256,2.8251,2.8253,2.8262,2.8256,2.8245,2.8243,2.8239,2.8241,2.8231,2.8223,2.8238,2.8238,2.8251,2.8239,2.8204,2.8257,2.8257,2.8245,2.8169,2.8155,2.8148,2.8214,2.8213,2.8213,2.8168,0,2.8197,2.8177,2.8195,2.8172,2.8165,2.819,2.818,2.8184,2.8192,2.8187,2.8197,2.819,2.8212,2.8211,2.8202,2.821,2.8188,2.8214,2.8203,2.8202,2.8199,2.814,2.8125,2.8083,2.8162,2.8162,2.8161,0,2.8143,2.8144,2.812,2.8131,2.8129,2.8119,2.8119,2.8114,2.812,2.8127,2.8127,2.8143,2.8131,2.8155,2.8138,2.8155,2.8152,2.8155,2.8154,2.8152,2.8177,2.8134,2.807,2.8062,2.8152,2.8153,2.8154,0,2.8093,2.8088,2.8073,2.8074,2.8087,2.8079,2.8084,2.8091,2.8089,2.8089,2.8088,2.8086,2.8085,2.8083,2.8097,2.8114,2.8078,2.8104,2.8082,2.8081,2.8071,2.8071,2.8003,2.8073,2.8073,2.8073,2.8073,0,2.8041,2.8025,2.805,2.8041,2.8023,2.8044,2.8026,2.8034,2.804,2.8031,2.8054,2.8045,2.8067,2.806,2.8072,2.8055,2.8055,2.8059,2.8062,2.8055,2.8055,2.8052,2.8054,2.8071,2.8072,2.8072,2.8072,0,2.798,2.7997,2.7982,2.7996,2.7999,2.7986,2.7997,2.7988,2.7999,2.7988,2.7987,2.8003,2.7997,2.8013,2.8008,2.8016,2.7991,2.8,2.799,2.7991,2.7968,2.7969,2.7894,2.7884,2.7962,2.7962,2.7961,0,2.7945,2.7934,2.7947,2.7943,2.7947,2.7941,2.7939,2.796,2.7957,2.7962,2.7953,2.7949,2.7946,2.7934,2.7945,2.7942,2.7949,2.7923,2.7949,2.7943,2.7946,2.7946,2.7944,2.7917,2.7916,2.7915,2.7915,0,2.788,2.7889,2.7886,2.7886,2.7884,2.7885,2.7887,2.7883,2.7905,2.79,2.7894,2.7893,2.7889,2.7884,2.7883,2.7887,2.7903,2.7907,2.7901,2.7893,2.7887,2.7888,2.7973,2.7908,2.7909,2.7909,2.7909,2.791,2.783,2.782,2.7828,2.7824,2.7828,2.783,2.7822,2.7833,2.7828,2.7827,2.784,2.7831,2.7837,2.7838,2.784,2.7833,2.7845,2.7837,2.7834,2.7832,2.7827,2.789,2.7833,2.7833,2.7834,2.7834,2.7834,0,2.7764,2.7771,2.7767,2.777,2.7766,2.7785,2.7788,2.7784,2.7776,2.778,2.7778,2.7771,2.7766,2.7777,2.7774,2.7766,2.7774,2.7764,2.7764,2.7764,2.7818,2.7822,2.7758,2.7758,2.7758,2.7758,2.7758,2.7758,2.7729,2.7713,2.7724,2.771,2.7717,2.7709,2.7709,2.7711,2.7714,2.7706,2.7702,2.771,2.7717,2.7715,2.7711,2.7714,2.7711,2.7699,2.7704,2.7753,2.7761,2.7767,2.7771,2.7698,2.7698,2.7651,2.7651,2.765]}]]